Wind_Speed
9 10 12 12 11 11 12 12 10 7 5 6 7 7 11 12 12 11 6 8 11 12 14 16 19 19 19 19 18 17 17 19 19 20 20 19 18 18 17 17 18 18 18 18 18 21 24 22 20 21 19 17 16 14 13 12 11 10 10 11 12 12 13 14 14 15 15 16 17 18 18 19 20 20 21 21 22 25 26 27 28 29 30 31 32 34
10 12 13 12 10 7 8 10 10 9 9 9 11 12 13 15 15 11 7 8 9 13 17 16 19 21 20 20 19 18 19 20 21 22 22 21 20 21 20 20 20 19 19 18 18 22 26 24 22 23 22 19 17 15 14 12 12 12 11 11 12 14 14 15 16 16 16 17 18 19 19 20 21 22 22 22 21 23 25 26 27 28 29 30 31 32
11 14 12 11 15 12 7 9 10 10 10 10 12 14 14 14 13 11 12 13 12 13 16 16 19 21 20 21 21 20 21 21 22 22 23 22 22 22 21 20 19 20 19 18 21 26 26 24 23 25 23 20 17 17 15 14 14 13 12 12 13 14 15 15 16 16 16 17 18 19 20 21 22 23 24 24 23 23 24 25 27 28 29 29 30 31
11 11 9 11 17 14 9 9 8 8 10 11 12 13 14 11 10 12 11 11 11 11 13 15 17 19 19 21 22 23 24 23 24 24 23 23 24 22 21 19 18 19 19 20 25 27 24 23 25 26 24 21 19 18 16 15 14 14 13 12 12 12 13 13 14 14 14 14 15 17 18 20 21 23 24 24 25 25 25 25 26 27 27 28 30 31
11 7 7 9 11 10 8 9 9 10 11 12 13 13 13 10 9 11 6 3 8 12 13 12 15 20 22 22 22 22 24 25 25 24 23 24 25 24 22 21 19 19 18 20 25 24 21 23 25 24 22 21 21 19 16 15 15 14 13 12 11 10 10 10 10 10 11 11 12 13 15 17 18 20 21 23 24 25 26 26 26 26 26 27 29 30
12 12 12 8 6 8 10 11 11 11 12 13 14 14 13 10 8 9 7 6 11 14 13 11 11 16 17 18 19 18 20 23 23 23 25 25 24 23 22 21 20 20 20 20 20 20 19 21 22 21 21 22 21 19 17 16 15 14 13 11 10 9 8 8 7 8 8 9 10 11 12 13 15 16 18 20 22 23 25 26 26 27 26 26 27 28
12 12 12 9 7 10 11 12 12 12 13 12 10 11 11 10 9 10 9 10 13 10 8 10 9 10 8 11 15 15 15 17 19 20 23 24 22 21 20 19 18 19 20 20 18 19 19 19 20 21 21 21 20 18 17 17 15 14 12 11 11 10 8 8 8 8 8 9 9 10 11 11 13 14 16 17 19 20 22 23 24 25 26 25 25 26
13 12 10 9 10 11 12 14 12 13 14 10 6 7 8 10 11 11 11 13 14 10 6 12 13 13 13 12 12 14 14 14 15 16 17 19 19 18 17 17 16 17 19 20 19 19 20 20 21 21 21 20 18 18 18 17 15 13 12 11 11 11 10 9 9 10 10 11 11 10 11 12 13 14 15 17 18 19 20 21 22 23 25 25 25 25
8 12 10 9 11 12 13 12 10 12 14 9 6 7 8 9 11 11 12 14 14 12 12 15 14 12 15 14 10 12 14 14 14 15 15 15 16 17 17 16 16 16 19 20 20 20 22 22 23 22 20 19 19 19 19 18 16 14 13 12 11 12 11 10 11 11 12 13 13 13 13 14 14 14 15 16 18 19 20 20 21 22 23 24 25 25
4 9 9 9 12 12 12 11 9 11 12 10 8 8 9 10 11 12 13 14 15 13 14 15 14 11 12 12 12 13 14 15 14 15 15 15 15 16 17 16 16 16 18 19 20 22 24 24 24 23 21 21 21 19 18 19 18 15 14 13 12 13 13 11 12 13 14 15 16 16 16 16 16 16 16 16 17 18 20 21 21 22 22 23 24 25
9 10 10 11 13 12 9 10 12 11 11 12 10 9 11 11 12 13 14 14 13 12 16 18 17 13 9 11 12 13 13 12 12 14 14 15 15 15 16 16 16 16 17 17 18 21 25 25 25 24 23 22 20 18 18 19 18 16 15 14 13 14 14 13 14 16 17 18 19 19 19 19 18 18 18 18 17 17 17 19 21 22 22 23 24 24
13 13 13 13 13 13 10 11 13 13 12 12 11 11 12 13 13 13 14 15 10 9 15 18 17 15 12 12 11 8 10 11 10 11 14 15 15 15 16 16 16 16 17 17 17 20 24 26 26 25 23 21 19 18 18 18 18 17 16 15 15 15 16 16 16 18 20 21 21 21 21 21 20 20 20 19 19 18 16 16 17 20 22 23 24 25
15 16 14 12 13 13 13 12 13 13 13 13 13 14 13 11 11 11 11 11 10 13 17 15 12 14 15 16 13 7 8 11 10 10 13 15 16 15 16 16 16 17 17 18 18 20 24 26 25 24 22 21 20 19 18 19 18 18 17 16 16 17 18 19 19 21 22 23 23 23 23 23 23 22 22 21 21 20 18 17 16 17 19 21 23 25
12 15 15 14 14 14 15 15 14 13 13 15 16 16 14 9 8 8 9 9 11 14 14 11 11 12 14 16 15 13 12 11 11 12 12 15 15 15 15 15 16 17 18 18 19 21 24 26 25 24 24 23 22 20 20 20 19 19 18 18 18 19 20 21 22 23 24 24 24 24 25 25 25 24 23 23 22 22 21 20 19 18 18 19 21 24
12 12 12 14 14 14 17 18 17 14 14 17 18 18 18 15 11 10 8 9 9 7 4 6 8 9 11 10 10 13 14 13 14 14 14 16 16 16 16 15 16 17 18 19 20 21 23 25 25 25 25 26 24 22 22 22 21 20 20 19 20 22 23 23 23 24 25 25 25 26 26 27 27 26 25 24 24 23 22 22 21 21 21 21 22 22
14 14 11 12 11 10 13 16 16 16 17 17 16 20 22 19 16 15 15 16 15 10 7 11 12 11 14 12 10 10 13 15 16 16 17 17 16 17 17 17 17 17 19 21 22 22 22 24 26 25 25 27 26 24 24 23 22 22 21 22 22 24 25 25 24 25 25 26 26 27 28 28 28 28 26 26 25 24 23 23 23 23 23 24 24 24
15 16 10 9 10 10 12 14 14 16 17 13 14 19 21 19 18 18 18 19 17 12 13 17 17 17 18 18 19 18 17 18 18 18 19 18 17 17 16 16 16 17 19 20 22 23 23 25 27 25 24 26 26 25 25 24 23 23 23 24 25 26 27 26 25 25 26 27 27 28 29 29 29 28 27 26 26 25 24 24 24 25 25 26 26 26
14 17 13 11 14 14 13 15 15 17 18 17 18 18 16 17 18 17 15 14 12 10 12 18 20 20 18 17 19 20 21 21 20 20 20 19 19 19 17 16 15 16 18 19 21 22 22 24 26 25 24 25 26 26 25 24 24 24 25 26 26 26 27 26 26 26 27 27 28 28 29 29 29 28 28 27 26 26 25 25 26 26 27 28 28 28
11 16 18 16 18 17 13 14 18 20 20 22 23 20 17 17 17 17 14 10 10 9 9 16 20 21 22 21 18 19 20 20 20 20 20 20 21 20 18 17 15 15 17 18 20 20 21 23 23 24 25 25 26 26 25 24 24 25 26 26 26 26 27 27 26 26 27 27 28 29 29 29 29 29 28 28 27 27 27 27 28 29 29 30 30 30
10 14 17 15 16 16 14 16 19 21 20 20 21 20 21 21 20 21 18 14 13 10 9 14 17 19 24 24 21 22 22 19 20 21 21 21 22 21 19 17 16 15 16 18 19 19 20 21 20 22 22 22 25 26 24 23 25 26 27 26 26 26 27 28 27 27 27 27 28 29 30 30 30 30 30 29 29 29 29 30 30 31 32 32 32 33
12 15 19 18 16 17 18 18 19 20 18 18 19 19 20 21 22 22 21 21 19 12 9 10 12 19 25 21 18 20 20 20 19 20 22 22 22 22 20 18 16 15 16 17 18 18 19 19 20 20 19 22 25 24 21 23 24 25 26 26 26 27 28 29 28 28 28 29 29 30 30 31 31 31 31 31 31 31 31 31 32 33 34 34 34 34
14 14 18 20 19 20 22 20 19 20 19 18 19 20 19 19 19 17 14 20 22 16 14 13 11 20 25 18 16 19 19 20 19 19 22 22 21 22 21 19 18 17 17 18 18 19 19 20 20 20 21 26 27 22 20 22 23 24 26 26 27 29 30 30 30 29 30 30 31 31 31 31 31 32 32 33 33 33 32 33 34 34 35 36 36 36
17 15 17 22 22 23 25 24 24 24 23 23 22 22 21 20 21 19 14 18 22 19 22 21 16 23 27 19 17 20 19 21 21 20 20 19 20 23 22 21 20 18 18 18 19 20 20 20 20 20 25 29 25 21 22 23 23 25 27 27 29 30 31 32 31 31 32 32 32 32 32 32 32 32 33 33 34 34 34 35 35 36 37 37 38 38
18 15 17 23 24 24 26 26 26 26 25 27 27 26 26 24 25 25 22 23 22 20 23 19 13 23 29 21 17 19 17 18 18 19 20 19 20 23 23 22 21 20 19 19 20 20 20 20 20 22 27 26 23 24 25 24 25 27 27 29 31 31 32 33 33 33 33 33 33 32 32 32 33 34 34 34 34 35 35 36 36 37 38 38 39 40
13 11 13 17 16 16 18 17 20 21 20 22 22 20 20 21 21 21 21 20 20 23 26 18 13 22 26 20 17 16 14 15 17 18 21 22 22 23 24 24 23 22 22 22 22 22 21 21 22 24 25 21 21 26 27 26 28 29 29 30 32 33 33 34 34 34 33 33 33 32 33 33 34 34 34 35 35 35 36 37 38 39 39 40 40 41
13 12 14 14 12 11 12 11 11 12 12 14 15 15 17 18 19 19 19 18 19 24 28 22 20 26 27 24 24 22 19 20 21 20 22 24 25 25 24 26 26 25 25 25 24 23 23 24 23 22 21 20 21 27 29 27 27 30 31 31 33 34 34 34 34 34 33 33 33 33 33 34 34 35 35 35 36 36 38 39 39 40 41 41 42 42
15 16 17 19 20 22 22 21 18 17 18 19 20 21 23 23 23 22 22 23 24 24 27 27 24 26 29 29 29 28 28 29 28 27 28 27 27 26 24 26 28 28 28 28 26 26 26 26 24 20 22 24 24 28 31 30 29 31 32 32 33 34 34 34 34 32 32 33 34 34 34 35 35 35 35 36 37 38 39 40 41 42 42 43 43 42
17 19 19 21 26 30 31 30 26 23 24 26 27 28 29 28 28 27 27 29 28 25 26 30 27 25 29 33 34 35 34 33 33 32 31 30 30 29 26 23 25 28 29 28 27 27 27 27 25 21 24 26 25 27 31 32 33 34 33 33 34 34 34 33 32 32 32 33 34 34 35 35 35 36 36 37 39 40 41 42 43 43 44 44 43 42
16 19 20 21 26 30 30 29 27 25 26 27 29 31 32 31 30 30 31 32 31 29 30 34 34 32 36 41 45 45 41 38 36 33 32 33 34 34 32 28 25 25 27 29 28 27 28 28 26 25 26 25 25 27 30 33 35 36 34 34 34 34 34 32 31 32 32 33 33 34 34 35 36 37 37 39 40 41 42 43 44 44 44 44 43 43
18 21 19 19 25 30 29 27 26 25 26 28 31 34 36 35 32 32 33 33 33 35 35 36 38 41 44 46 48 48 44 38 36 35 36 36 37 39 39 37 34 28 25 28 29 27 27 26 25 27 28 25 25 28 31 33 36 36 34 34 34 33 33 32 31 32 32 32 33 33 34 35 36 37 38 39 40 41 42 43 44 44 44 43 43 43
18 21 18 18 24 29 28 25 24 25 27 29 33 37 36 32 31 32 33 33 33 35 36 35 37 42 45 45 45 46 42 37 36 36 37 36 36 39 40 40 41 37 30 26 26 27 27 25 26 30 30 26 25 29 32 34 35 35 34 34 33 32 32 32 31 31 31 31 32 33 34 35 36 37 38 39 40 41 42 43 43 43 43 43 43 43
18 20 19 19 24 30 27 20 21 24 25 29 38 40 34 31 33 34 34 34 33 33 34 34 35 40 43 41 40 40 37 35 35 35 35 36 35 37 38 37 39 42 38 32 28 26 26 28 30 31 29 27 28 30 32 33 34 34 34 33 32 32 32 31 30 30 30 31 32 33 33 34 35 36 37 39 40 41 42 43 43 43 43 43 42 42
19 21 21 19 22 29 26 18 20 21 19 27 38 35 30 32 34 33 33 33 31 31 32 33 34 37 38 36 35 35 35 35 35 33 34 35 34 35 37 36 38 40 41 41 36 27 27 32 33 31 29 28 30 30 32 32 33 34 33 32 31 32 31 30 29 30 31 31 31 31 32 33 34 35 37 39 40 41 41 42 43 42 42 42 41 39
20 21 22 19 21 28 26 20 19 17 17 29 35 26 22 27 28 27 29 29 27 28 29 31 33 34 35 34 33 34 36 37 36 34 34 34 34 34 33 35 37 37 39 43 38 29 29 34 35 33 30 29 30 30 31 32 32 32 32 31 31 30 30 29 30 30 30 30 30 30 31 32 34 35 37 38 40 40 41 42 42 41 41 40 38 37
23 23 22 22 22 26 27 22 16 15 24 33 32 24 22 24 24 26 27 26 26 28 28 30 32 33 33 34 34 35 35 36 36 36 35 35 36 35 33 33 37 39 40 41 34 29 31 34 34 33 30 28 30 30 31 32 31 31 31 30 29 29 29 29 30 30 30 30 29 30 31 32 33 35 37 39 40 41 41 41 40 39 38 36 35 35
27 26 25 25 24 24 25 21 17 19 27 30 26 24 24 23 23 24 25 26 27 27 27 29 30 29 30 32 34 36 35 34 36 38 38 36 35 36 32 27 30 38 39 33 28 30 34 34 32 31 28 28 30 30 30 31 30 29 29 28 28 29 29 29 29 29 30 30 29 29 31 32 34 35 37 39 40 41 40 39 38 37 35 34 34 35
30 30 28 28 27 26 26 27 26 26 28 29 28 27 25 22 21 21 22 26 27 23 23 26 25 25 29 32 34 34 35 35 36 39 40 35 32 35 32 23 25 35 34 27 28 34 36 33 30 29 27 28 29 29 29 29 27 26 27 28 28 28 29 29 28 28 30 30 29 29 31 32 34 36 38 39 39 39 38 37 36 35 34 34 35 35
28 32 32 30 30 29 28 26 22 19 21 23 21 19 18 18 19 18 18 23 26 24 23 23 21 22 27 30 29 28 28 31 34 35 35 32 30 35 37 28 23 28 30 30 33 36 33 30 29 28 27 27 27 27 27 26 24 25 26 27 27 28 27 28 27 27 29 29 29 30 31 33 35 37 38 38 38 37 36 35 35 35 33 34 35 36
26 29 31 31 32 31 28 23 17 16 20 21 17 14 15 16 15 14 14 18 22 20 17 17 16 18 22 24 25 25 25 29 34 33 30 31 31 33 38 30 17 22 32 34 34 33 29 26 26 26 25 26 25 24 25 25 24 24 26 26 26 27 26 27 28 28 28 28 29 30 32 34 36 37 37 37 36 35 35 35 34 34 33 34 36 37
24 26 28 31 33 33 30 27 23 23 24 23 18 16 16 15 13 12 10 12 14 12 12 15 18 21 24 25 26 28 28 30 36 35 31 30 27 23 27 26 22 27 32 32 30 28 24 22 22 24 25 24 23 23 23 24 25 25 25 25 24 25 26 27 28 28 28 28 29 31 33 35 36 37 37 35 35 34 35 35 35 34 34 35 37 37
23 24 25 28 29 30 29 27 25 25 25 24 21 19 18 15 14 15 13 13 16 15 15 20 24 27 30 30 30 32 31 30 34 36 34 32 27 19 21 26 27 28 29 30 28 24 20 19 21 24 24 22 22 23 24 25 25 24 23 23 24 25 26 28 28 27 27 29 30 32 34 35 36 37 36 34 34 34 34 35 35 35 35 36 37 37
22 22 24 26 26 26 26 25 23 22 23 23 20 17 16 14 14 17 18 18 21 21 20 23 28 30 31 31 31 32 32 31 31 31 32 32 32 28 26 28 30 30 28 27 23 17 17 21 22 22 22 21 22 23 23 24 23 21 21 23 24 26 28 28 27 27 28 29 31 33 34 35 35 34 33 32 32 32 33 35 35 35 36 36 36 38
21 20 22 23 22 22 24 22 18 14 14 15 14 13 15 17 18 21 24 25 25 24 22 23 27 29 29 29 29 29 29 29 27 28 30 31 30 27 23 25 27 27 23 19 16 16 18 20 20 19 20 21 22 22 22 22 20 19 22 24 25 28 29 27 26 27 28 30 31 33 34 34 33 31 29 29 30 31 33 34 34 34 35 36 36 38
22 22 23 22 19 19 21 20 16 13 12 14 17 19 22 25 25 26 27 27 26 25 25 25 26 27 27 27 28 28 28 26 23 24 26 25 22 19 20 21 19 17 15 15 17 17 17 17 18 20 20 20 20 21 21 20 18 20 23 24 26 28 27 25 25 27 28 30 32 33 33 31 28 27 28 29 30 31 32 33 33 33 33 34 36 38
19 20 21 21 20 21 24 25 22 21 22 22 22 24 25 27 27 27 27 27 27 27 28 27 26 25 25 26 26 27 27 24 20 20 19 16 14 16 19 17 15 16 16 17 18 16 15 17 19 19 18 19 19 21 21 19 19 22 24 24 27 28 24 23 25 27 28 30 32 31 29 26 25 26 27 28 29 29 31 32 32 31 32 33 35 37
22 20 20 22 24 26 28 29 27 25 25 24 23 25 27 27 26 24 25 28 28 27 27 26 26 26 26 25 26 26 26 21 16 17 17 12 9 10 11 11 14 17 16 16 16 15 15 17 17 17 19 19 18 19 19 18 18 21 22 24 26 25 22 22 25 26 28 29 29 26 23 22 23 25 26 27 27 28 29 30 31 31 31 33 35 37
23 23 24 28 30 29 26 24 23 21 22 22 22 24 25 24 21 21 26 30 28 25 26 26 27 27 26 24 24 24 23 18 14 16 18 13 10 7 7 9 12 16 15 15 15 14 15 15 16 17 18 17 16 18 18 17 16 14 17 22 24 21 20 22 24 26 27 27 25 21 20 21 23 24 24 25 26 27 28 29 31 32 33 34 35 37
22 24 27 27 28 27 27 27 25 24 24 25 24 23 24 24 22 22 25 25 23 24 26 25 25 27 25 24 24 23 20 17 16 17 15 12 11 8 6 7 10 13 14 14 13 13 14 14 15 16 17 15 15 16 17 18 16 13 15 21 21 18 20 22 23 24 25 24 20 18 18 21 23 24 24 25 26 27 28 28 30 32 33 34 36 38
27 28 28 26 25 28 31 31 29 27 26 23 19 18 21 24 24 22 21 21 20 23 26 25 25 27 26 24 24 22 18 18 21 17 8 6 9 10 7 5 8 10 12 13 12 13 14 13 11 11 12 12 12 14 16 17 15 12 12 15 16 17 20 22 21 22 22 19 16 16 19 22 23 24 25 27 27 28 28 28 28 30 32 34 35 38
29 29 27 24 25 27 28 28 24 21 21 20 16 16 20 24 26 26 26 25 23 22 24 25 25 27 27 25 24 22 18 17 21 18 14 10 8 8 6 4 6 7 9 11 12 12 12 11 9 7 8 7 8 11 13 13 12 11 9 12 16 18 19 19 19 20 18 15 14 17 20 21 22 23 26 28 29 29 29 29 29 30 31 33 34 36
26 27 26 24 26 27 27 28 24 21 21 21 19 19 23 27 28 28 27 24 22 22 24 25 25 26 26 21 16 17 17 17 17 15 15 14 9 7 6 6 6 6 6 8 9 8 8 9 7 6 7 7 5 7 11 12 12 11 12 15 17 17 17 16 16 16 16 14 14 16 19 21 23 25 27 29 30 31 31 31 30 31 32 33 34 36
Wind_Direction
215 220 223 230 233 220 211 219 241 275 289 274 268 253 254 258 254 252 233 206 215 232 245 247 245 245 242 238 235 230 221 216 220 222 222 224 225 228 233 237 241 241 240 242 239 237 247 255 248 245 249 251 254 259 262 258 251 246 245 251 254 253 255 256 257 258 260 263 264 265 266 266 265 261 257 253 251 253 253 253 252 252 253 253 252 251
222 229 231 231 228 200 191 217 239 259 261 257 257 256 257 254 252 253 234 216 227 249 256 253 249 249 244 240 237 232 227 226 225 225 228 232 234 237 241 243 246 246 244 243 236 230 243 256 250 242 244 248 252 255 256 250 245 244 241 246 250 252 254 255 256 256 257 260 262 265 267 269 271 270 269 264 257 254 254 255 254 254 254 254 254 253
230 237 235 223 222 218 225 241 243 249 251 248 247 250 256 254 247 237 233 245 257 257 256 255 253 251 245 242 241 235 233 234 233 233 235 238 240 242 243 245 246 246 244 239 231 232 245 255 249 242 242 244 247 249 248 242 242 245 242 243 247 250 254 255 257 258 257 256 258 261 264 266 269 271 272 272 269 264 259 257 255 255 256 255 255 255
236 234 210 211 228 233 244 245 235 237 240 239 242 246 249 252 254 246 233 236 248 252 256 258 258 256 249 245 243 238 237 238 239 241 243 241 239 238 239 241 245 246 240 231 230 237 246 248 242 242 241 240 241 243 243 240 243 244 243 245 247 249 253 254 258 261 262 261 260 261 263 266 268 271 273 275 274 273 270 265 260 258 257 257 256 255
250 247 215 220 233 232 233 229 226 237 240 236 238 246 253 258 260 259 248 217 253 262 255 251 258 257 249 243 241 237 235 237 239 242 244 241 239 239 241 241 241 240 230 223 231 238 242 242 241 242 240 236 237 239 239 240 242 241 239 240 242 247 252 253 258 263 267 269 268 267 266 268 270 272 275 276 276 276 275 273 270 265 261 259 257 256
249 251 248 248 238 227 230 231 228 235 246 250 244 238 250 269 263 254 259 257 263 259 234 223 251 259 245 233 235 234 229 232 237 239 239 239 241 243 244 243 237 231 221 216 228 238 239 239 238 236 233 231 233 235 236 239 239 235 231 231 235 244 252 257 260 266 273 276 278 279 275 275 276 275 276 278 278 278 278 277 276 273 268 263 261 258
248 250 245 236 235 231 231 236 235 235 246 256 247 225 233 259 258 248 248 244 254 260 217 208 250 280 264 229 226 223 219 225 233 237 236 236 239 238 237 236 230 225 219 214 223 235 235 232 231 229 229 231 233 233 235 236 231 227 225 228 238 248 255 264 268 271 278 279 281 285 285 284 283 282 283 283 283 282 281 281 280 278 275 270 266 263
237 245 242 225 232 234 232 238 236 229 237 248 238 222 235 249 245 241 240 239 252 273 247 225 246 273 272 257 235 214 212 223 230 231 230 227 228 226 225 226 221 220 221 217 219 230 233 232 232 233 234 235 233 234 235 230 222 221 223 228 240 252 258 267 273 275 280 281 281 283 285 286 285 283 283 284 286 286 285 284 284 283 281 277 273 268
221 233 235 225 230 232 232 240 235 220 231 252 251 234 243 246 239 236 238 243 251 264 259 240 234 250 261 254 226 207 219 230 226 224 222 218 218 219 219 220 218 218 224 223 221 226 232 235 236 237 238 237 234 236 235 225 220 222 225 231 241 253 260 267 276 280 282 284 285 285 287 288 288 286 283 281 283 285 286 286 286 285 284 282 279 275
247 228 221 222 228 230 232 237 227 214 227 248 252 245 247 243 237 235 239 249 254 253 257 250 228 229 257 249 217 210 227 235 228 223 220 217 217 218 218 218 216 216 222 226 225 226 232 237 239 239 238 237 237 238 232 224 224 228 231 237 244 253 263 270 279 284 285 286 287 287 288 289 290 290 288 285 283 284 285 286 286 285 285 285 282 279
252 243 232 226 225 228 237 234 223 220 233 244 245 246 244 235 233 239 241 249 259 250 246 248 231 223 256 262 240 225 219 224 228 223 217 215 215 215 216 216 214 215 219 221 221 227 234 239 239 239 238 238 240 238 231 227 229 233 237 242 247 255 264 272 281 285 287 288 287 287 287 288 290 291 290 289 286 284 284 285 286 285 285 285 284 282
239 244 238 231 228 227 234 237 232 231 235 239 240 243 242 235 232 241 242 242 253 249 245 248 233 223 238 255 264 251 211 211 226 228 220 213 213 214 215 217 216 217 220 220 216 221 233 240 239 238 239 240 242 238 232 231 233 237 241 246 252 258 265 274 281 284 287 288 286 286 286 286 288 290 291 290 288 286 284 284 286 286 286 285 284 283
225 235 235 233 227 219 225 235 233 227 228 233 236 238 243 241 234 238 243 238 240 245 249 247 227 221 235 251 272 273 213 213 226 230 222 213 213 216 218 221 222 220 220 221 218 218 232 242 240 239 241 242 243 240 236 235 235 239 245 251 257 262 268 275 281 283 284 284 284 284 285 286 287 289 290 291 289 287 284 283 284 286 287 287 285 284
234 236 228 225 222 218 225 231 229 224 224 230 233 234 239 249 251 248 246 242 244 251 254 243 227 231 242 255 266 252 228 227 229 223 216 212 213 217 221 225 227 226 222 221 220 219 232 243 241 239 242 242 241 240 239 239 238 242 250 256 261 265 270 276 280 281 281 281 282 283 283 284 285 286 288 289 288 286 285 284 283 284 285 286 286 285
262 256 229 219 224 226 226 229 238 246 241 235 236 240 243 248 256 263 271 272 274 290 286 230 224 237 244 252 258 242 232 230 227 221 216 215 218 220 223 225 226 228 225 222 222 220 227 240 242 239 240 240 239 240 241 242 243 248 254 259 262 266 272 276 277 277 277 278 279 280 280 281 282 284 286 286 286 284 282 283 283 283 283 283 284 284
264 267 249 223 224 226 225 230 240 251 254 247 240 242 246 249 255 265 277 284 289 302 281 239 232 240 249 257 256 240 231 228 227 224 220 219 221 223 225 226 227 229 228 225 224 223 223 231 240 240 237 237 238 239 242 244 247 251 255 259 263 267 271 274 275 275 275 276 277 278 278 279 280 282 283 283 283 281 280 281 283 284 285 285 284 285
261 267 256 222 229 234 237 244 240 242 254 259 247 244 249 257 265 269 271 271 273 277 268 256 251 250 254 261 258 246 237 235 233 226 223 222 221 223 226 230 233 232 231 229 225 224 222 226 236 240 235 236 238 240 245 247 249 252 255 259 263 267 270 272 273 273 275 276 277 277 277 277 279 280 281 281 280 280 279 281 283 285 287 287 288 287
267 272 261 239 249 254 248 250 246 241 248 255 255 257 266 267 263 264 268 268 261 260 264 260 256 254 254 261 262 250 241 243 242 235 228 225 223 224 226 232 238 237 233 228 225 225 222 224 235 239 235 236 240 243 246 248 250 252 255 260 263 265 266 268 270 272 275 277 277 276 276 277 278 279 279 279 279 279 280 282 284 286 287 288 289 289
264 274 268 252 255 260 251 246 250 249 248 252 259 265 271 268 260 254 256 262 263 264 265 258 257 256 254 258 263 258 254 251 245 239 234 230 229 226 226 231 236 237 230 223 223 222 221 223 231 237 237 238 242 245 245 246 250 254 258 262 263 263 264 267 270 273 275 276 277 277 277 278 279 279 278 278 279 280 282 284 285 286 287 288 288 289
261 272 273 263 258 260 250 244 253 257 252 250 256 261 259 259 261 261 258 257 260 264 268 264 264 261 259 261 260 259 266 263 248 241 240 238 236 231 229 230 229 230 226 219 219 220 221 222 223 231 235 235 239 243 243 245 251 256 260 262 263 265 267 270 273 276 277 278 277 277 278 278 278 278 278 278 279 281 283 285 286 286 287 287 287 288
263 264 270 271 267 258 248 244 251 262 263 254 252 256 256 253 255 260 260 256 256 261 267 266 266 265 265 268 263 259 267 270 257 245 242 242 241 236 233 231 226 226 223 218 216 217 219 220 220 226 229 228 237 243 241 246 253 257 259 261 263 266 268 272 276 278 280 280 279 278 277 277 277 277 278 279 280 282 283 284 285 286 286 287 287 287
259 257 268 273 269 258 252 252 257 264 268 266 264 264 261 259 260 262 260 255 254 259 267 269 273 269 267 270 270 266 267 269 266 258 253 248 241 237 235 235 230 225 223 220 217 216 217 220 223 225 225 230 241 247 244 247 253 256 258 259 262 264 267 272 276 279 280 281 280 279 278 277 277 277 277 279 281 283 284 285 285 286 287 287 288 287
265 262 268 269 267 264 262 262 263 265 266 268 268 265 263 265 266 264 266 267 266 266 267 269 271 268 268 271 277 276 272 268 266 264 264 257 243 235 234 235 232 227 227 225 221 218 217 221 224 223 229 238 247 249 247 249 252 254 256 258 260 263 267 271 275 278 280 281 280 279 279 279 278 278 279 281 284 285 286 286 286 287 288 288 289 289
272 266 266 269 271 270 268 265 262 261 262 261 260 258 259 262 265 269 272 274 276 271 266 266 266 266 271 276 279 280 275 267 265 267 268 265 251 238 234 235 232 230 231 225 222 222 219 220 220 221 233 246 251 248 247 249 251 254 257 259 261 264 266 270 273 276 278 279 279 279 279 279 280 281 282 284 285 286 287 287 288 288 289 289 290 290
275 273 270 276 279 276 270 263 258 255 254 257 260 261 261 265 272 279 278 272 269 265 261 261 262 267 273 278 280 285 284 276 277 277 276 273 260 244 238 235 231 232 233 227 223 224 221 218 219 226 238 247 246 249 253 250 251 257 259 259 262 264 266 269 272 275 277 278 278 278 279 280 281 282 284 284 285 286 287 288 288 289 290 290 290 291
273 275 270 272 273 273 270 266 273 285 288 280 274 272 271 272 272 276 278 271 265 264 262 261 264 271 274 275 277 284 288 285 282 279 277 273 264 256 247 239 235 234 233 228 224 222 219 220 225 232 240 238 233 245 259 259 255 258 260 261 263 264 266 268 271 275 276 276 278 279 279 280 281 282 284 285 286 287 287 288 288 289 289 290 290 291
265 265 262 259 260 264 269 274 286 299 298 289 283 277 274 272 270 271 272 266 266 272 271 266 269 276 278 278 280 281 281 282 280 278 277 271 262 257 252 246 244 240 233 228 224 220 219 226 236 236 233 237 238 247 261 267 262 260 262 263 264 265 266 269 272 274 274 275 277 279 279 280 281 283 284 285 286 287 287 288 288 289 289 290 290 290
258 261 256 255 258 261 267 274 280 284 281 278 278 276 272 271 269 268 265 265 271 278 276 273 277 280 278 279 280 280 281 281 281 280 279 272 261 252 248 247 245 239 235 229 223 220 221 230 243 243 236 245 255 255 259 265 263 262 264 264 265 267 268 270 272 273 273 274 276 277 279 281 282 284 285 285 286 286 287 288 289 289 289 289 289 288
252 259 259 259 262 264 267 272 276 277 275 273 273 271 269 267 266 265 264 266 269 270 271 276 280 279 278 279 279 279 281 282 282 281 277 272 265 256 251 249 246 241 237 232 227 224 225 230 241 247 246 252 260 259 258 260 262 263 264 265 267 268 270 271 272 272 274 275 276 277 279 281 283 284 285 285 286 287 288 288 289 289 289 289 287 285
250 259 262 262 266 267 268 271 274 275 273 272 270 267 266 266 266 266 266 266 266 266 268 272 275 276 277 277 278 279 282 284 283 280 275 271 266 262 258 252 249 247 241 234 231 229 229 229 233 241 251 258 258 258 259 259 260 263 264 266 268 269 270 271 272 273 274 275 277 278 280 282 283 284 285 285 286 287 288 288 289 289 288 287 285 283
251 259 262 264 270 271 269 270 273 272 271 272 268 265 264 266 267 265 264 264 264 265 266 268 270 273 275 275 277 279 282 283 282 278 274 269 264 262 261 255 250 250 247 238 230 230 232 228 226 237 253 262 259 258 260 259 260 263 264 266 268 269 270 272 272 273 274 276 278 280 281 283 284 285 286 287 288 289 290 290 289 288 287 285 283 282
253 261 265 265 269 271 271 272 271 271 273 271 265 263 263 264 263 261 261 262 262 263 266 267 266 269 273 277 278 279 280 279 278 277 275 270 264 258 257 256 252 250 251 245 233 230 231 225 229 242 255 262 263 262 261 260 260 262 264 266 268 269 270 272 273 274 274 276 279 281 283 284 285 287 288 289 291 292 292 292 291 290 288 285 284 282
253 259 263 262 264 269 272 274 272 277 277 265 260 261 262 261 261 262 263 263 262 261 263 263 263 268 274 277 277 277 278 276 275 275 273 270 266 259 253 252 251 251 251 246 237 232 228 229 238 250 255 260 266 264 260 259 259 260 263 265 266 268 270 271 273 274 276 279 280 282 284 285 287 288 290 292 294 295 295 294 294 293 290 288 286 284
252 253 257 257 260 267 273 273 271 270 259 257 262 265 264 263 265 265 263 263 263 262 261 263 267 271 274 275 276 277 277 276 276 275 273 270 267 262 255 250 248 247 246 244 239 231 227 234 244 251 254 260 264 261 258 258 258 258 262 264 265 267 269 272 274 276 278 280 282 284 285 287 288 290 292 296 297 298 298 298 297 295 292 291 289 286
251 251 253 254 255 263 270 269 261 251 251 261 270 271 267 268 269 266 264 264 266 267 268 269 270 272 275 276 276 275 276 276 272 268 269 270 268 264 258 250 245 242 241 239 232 221 223 234 244 250 255 259 260 259 258 258 258 259 261 263 264 267 270 273 275 277 279 281 283 285 287 289 291 294 296 299 301 301 301 300 298 296 294 292 289 286
251 251 252 253 253 258 261 256 250 255 262 268 273 272 271 272 270 269 270 269 268 269 272 274 273 275 276 273 271 273 278 278 271 265 264 267 267 264 256 245 241 240 235 227 216 215 226 238 245 251 255 256 257 258 256 255 257 260 261 263 266 269 272 273 275 279 281 283 285 286 289 292 294 297 300 302 303 304 303 301 298 295 293 290 287 285
249 249 250 252 251 252 254 255 258 265 269 270 271 270 270 268 264 266 270 271 271 273 275 276 276 276 275 273 273 277 283 283 278 273 270 267 265 262 254 241 236 236 228 212 208 219 231 239 243 248 252 254 255 255 254 255 257 259 262 266 269 270 272 273 275 279 281 284 286 288 292 295 297 298 302 304 305 304 301 299 297 294 292 289 287 285
245 245 246 249 251 252 255 259 262 263 265 270 272 266 263 263 259 258 268 277 278 278 274 270 270 275 278 279 280 284 289 289 285 283 279 270 262 256 249 244 236 224 210 201 209 222 231 235 239 246 251 252 253 253 254 257 259 262 265 268 269 270 272 274 276 277 279 283 287 291 294 297 298 301 305 307 306 302 299 297 295 293 292 290 288 287
248 247 246 247 251 252 253 256 258 255 262 271 276 274 274 272 261 258 273 282 280 279 276 270 273 284 288 287 287 289 294 293 290 293 289 276 265 252 242 237 219 196 196 204 216 225 230 233 241 248 250 250 251 251 256 260 263 264 265 265 267 269 271 273 275 277 280 284 288 293 296 298 301 304 307 307 304 300 297 296 294 293 292 291 289 289
252 251 248 247 250 251 252 256 258 259 265 270 271 273 275 271 265 268 278 281 277 282 292 287 284 290 294 295 294 291 291 291 291 294 292 284 276 252 229 220 203 195 203 212 219 226 232 237 244 248 248 249 250 252 257 261 262 262 263 265 267 269 269 271 274 277 281 286 291 295 298 301 305 308 309 307 303 299 297 296 295 294 294 293 292 291
258 255 251 250 252 253 255 258 260 263 268 268 264 261 259 259 268 274 275 276 277 284 298 294 288 289 294 296 295 292 290 290 290 291 291 287 279 254 221 210 206 206 212 218 221 227 238 241 240 243 246 248 250 253 256 257 259 261 264 267 268 267 267 270 274 279 283 288 294 298 301 306 310 310 308 304 300 299 298 297 296 297 296 295 294 293
263 261 257 252 251 253 257 262 267 271 271 269 268 265 261 260 265 267 270 278 285 291 301 298 290 289 292 293 293 293 292 292 292 292 292 287 279 265 243 223 213 209 211 219 225 228 237 240 239 243 247 249 250 253 254 256 260 263 264 265 265 265 267 271 275 280 286 291 296 300 306 311 311 308 304 301 300 301 300 300 300 301 300 298 296 295
265 263 260 253 250 254 256 258 266 275 273 270 276 285 286 285 283 282 285 289 291 294 298 295 291 291 292 293 295 295 295 294 292 292 289 282 274 264 240 215 207 206 209 221 231 230 232 240 246 248 249 252 254 255 256 259 261 261 261 262 262 263 266 271 276 282 289 294 299 305 310 312 310 306 304 304 304 305 304 304 305 305 302 300 299 299
263 256 258 261 260 257 256 257 261 269 279 288 294 297 296 294 291 290 290 287 286 291 295 294 293 291 291 295 298 299 299 296 292 292 285 269 253 233 205 191 197 213 224 230 234 235 237 245 252 254 253 256 258 259 261 261 259 257 258 258 259 262 266 271 278 285 291 296 304 311 314 312 310 309 309 310 309 309 309 310 310 308 305 303 303 305
261 255 259 266 265 259 261 265 268 272 279 287 289 287 286 287 286 282 281 284 288 295 299 299 295 291 290 294 296 298 300 297 293 291 276 248 216 195 187 188 202 219 228 232 235 242 247 247 252 256 257 258 258 258 260 258 252 253 253 253 257 264 271 276 281 288 295 303 312 316 314 312 314 315 316 315 314 314 314 314 314 312 309 307 308 312
268 266 264 266 267 266 265 267 270 277 281 282 282 281 282 290 294 287 283 286 290 291 293 296 298 297 294 293 294 297 295 290 288 280 259 224 171 165 179 191 208 216 224 236 242 246 248 247 252 256 256 256 254 253 255 250 243 246 249 251 258 268 276 282 286 292 301 310 316 316 314 318 323 323 321 320 319 320 320 319 318 316 315 314 315 318
272 270 268 269 271 269 267 266 269 276 280 280 283 285 285 290 289 278 278 285 291 291 292 296 299 298 294 292 294 294 287 278 269 259 242 205 154 153 188 202 214 221 229 240 244 246 247 248 251 253 253 252 248 248 251 244 233 232 241 251 262 275 282 284 289 298 308 316 318 317 322 329 330 328 328 329 328 327 325 324 324 322 321 321 323 324
276 277 277 277 274 270 271 276 279 283 284 282 282 281 279 275 270 267 273 283 292 295 295 298 301 299 296 295 292 288 282 265 246 239 231 202 174 172 190 209 220 228 239 247 249 249 248 247 248 248 247 247 243 241 244 241 232 226 240 255 268 279 281 284 293 305 314 318 317 319 332 336 334 335 339 339 337 333 331 330 329 327 326 327 328 330
276 277 276 276 275 273 276 281 283 285 285 282 277 277 279 278 275 278 285 292 294 295 296 299 301 299 298 296 288 281 276 256 237 223 207 199 204 196 190 210 224 230 243 250 249 249 248 243 240 237 237 241 237 232 238 243 233 220 238 264 277 278 280 289 302 312 318 320 322 333 341 338 337 341 345 345 344 341 338 336 334 331 331 333 334 335
274 271 271 274 276 275 277 277 274 276 282 282 278 282 287 286 283 286 291 294 292 293 297 299 298 298 301 299 288 278 266 242 224 204 175 166 186 192 187 208 223 229 242 243 240 243 242 234 228 219 218 229 231 225 233 238 221 210 240 273 277 276 285 298 310 318 324 330 337 344 345 343 344 348 349 350 350 348 344 342 340 338 338 338 339 340
273 269 270 271 270 274 281 282 273 269 278 285 285 285 285 285 287 290 294 294 292 293 297 297 296 299 302 298 280 260 236 206 191 184 178 174 178 184 189 204 216 225 237 232 227 228 229 230 231 211 199 208 218 220 228 230 225 232 258 271 273 280 294 308 315 321 329 338 345 351 355 358 358 356 355 354 353 351 349 347 345 345 344 343 343 344
Height
3117 3117 3117 3116 3115 3115 3116 3116 3115 3114 3114 3114 3114 3114 3115 3114 3113 3113 3113 3112 3113 3115 3115 3115 3115 3114 3114 3115 3115 3114 3113 3115 3116 3117 3118 3118 3119 3119 3120 3120 3120 3121 3121 3121 3121 3118 3115 3116 3117 3117 3117 3118 3118 3119 3120 3120 3120 3120 3120 3120 3120 3121 3121 3121 3122 3122 3122 3122 3122 3122 3122 3122 3122 3123 3123 3124 3124 3124 3125 3126 3126 3126 3127 3128 3130 3130
3115 3115 3115 3114 3112 3112 3113 3114 3114 3114 3114 3115 3115 3115 3115 3114 3113 3112 3111 3110 3112 3113 3113 3114 3113 3112 3112 3112 3113 3113 3112 3111 3112 3114 3115 3116 3116 3116 3117 3117 3118 3118 3119 3120 3119 3116 3114 3114 3115 3116 3116 3116 3117 3117 3118 3119 3119 3119 3119 3119 3119 3119 3120 3120 3120 3121 3121 3121 3121 3121 3121 3121 3120 3120 3121 3121 3122 3123 3123 3123 3124 3124 3125 3126 3127 3127
3114 3113 3112 3111 3110 3111 3112 3114 3114 3114 3115 3115 3115 3114 3113 3112 3111 3110 3109 3110 3112 3111 3111 3111 3110 3109 3109 3110 3110 3111 3110 3109 3109 3110 3111 3113 3113 3114 3114 3115 3116 3116 3116 3117 3116 3113 3113 3113 3113 3113 3114 3115 3116 3116 3117 3117 3118 3118 3118 3118 3118 3118 3118 3118 3119 3119 3119 3120 3120 3119 3119 3119 3118 3118 3118 3119 3120 3120 3121 3121 3121 3122 3123 3124 3124 3125
3112 3110 3110 3109 3109 3112 3113 3114 3114 3114 3114 3114 3113 3112 3111 3110 3110 3108 3108 3109 3110 3110 3109 3109 3108 3107 3106 3106 3106 3107 3108 3108 3108 3107 3108 3109 3110 3111 3112 3112 3113 3113 3113 3114 3112 3110 3111 3111 3110 3111 3113 3114 3114 3114 3115 3116 3116 3116 3116 3117 3117 3117 3117 3117 3117 3117 3117 3118 3118 3118 3118 3117 3117 3117 3116 3117 3117 3117 3118 3118 3119 3120 3121 3122 3122 3122
3110 3108 3108 3108 3110 3112 3113 3113 3113 3113 3112 3112 3111 3111 3109 3109 3110 3109 3108 3109 3109 3108 3107 3107 3107 3103 3102 3102 3102 3103 3104 3105 3105 3105 3105 3106 3106 3107 3108 3108 3109 3109 3110 3110 3108 3108 3109 3109 3109 3110 3111 3112 3112 3113 3114 3114 3115 3115 3115 3115 3115 3115 3115 3116 3116 3116 3116 3116 3116 3116 3116 3116 3116 3115 3115 3115 3115 3115 3115 3115 3116 3117 3118 3119 3119 3119
3109 3106 3107 3109 3110 3111 3112 3112 3112 3112 3111 3110 3109 3109 3109 3109 3109 3109 3109 3109 3108 3105 3104 3106 3104 3097 3096 3098 3099 3100 3101 3101 3102 3103 3103 3103 3103 3104 3104 3105 3106 3106 3106 3107 3106 3106 3107 3107 3108 3109 3109 3110 3110 3111 3112 3113 3113 3113 3114 3114 3114 3114 3114 3114 3115 3115 3114 3114 3114 3114 3114 3114 3114 3114 3113 3113 3113 3113 3112 3112 3113 3113 3115 3116 3116 3116
3106 3105 3106 3109 3109 3110 3111 3110 3110 3111 3110 3108 3106 3107 3109 3109 3109 3109 3108 3108 3106 3102 3102 3104 3102 3096 3094 3096 3096 3097 3098 3099 3099 3099 3099 3100 3100 3101 3102 3103 3103 3103 3103 3104 3105 3104 3104 3105 3106 3107 3107 3108 3109 3110 3111 3111 3111 3112 3112 3112 3112 3112 3113 3113 3113 3114 3114 3113 3113 3113 3113 3113 3112 3112 3112 3111 3111 3111 3110 3110 3110 3110 3111 3112 3113 3114
3105 3104 3106 3107 3108 3109 3109 3108 3108 3109 3109 3106 3104 3106 3108 3108 3108 3107 3107 3106 3103 3101 3101 3101 3102 3098 3095 3093 3093 3095 3096 3096 3097 3096 3096 3097 3098 3100 3101 3101 3102 3102 3102 3102 3103 3103 3103 3103 3104 3105 3105 3106 3107 3108 3109 3110 3110 3110 3111 3111 3111 3111 3111 3112 3112 3112 3112 3112 3112 3112 3112 3111 3111 3111 3110 3110 3109 3109 3108 3108 3108 3108 3108 3108 3109 3110
3104 3104 3105 3106 3107 3107 3107 3106 3106 3107 3107 3105 3104 3106 3106 3106 3106 3106 3106 3104 3102 3101 3099 3098 3100 3098 3093 3090 3091 3093 3094 3094 3094 3095 3095 3096 3097 3098 3099 3100 3100 3101 3100 3100 3101 3101 3101 3102 3102 3103 3104 3105 3105 3106 3107 3108 3108 3109 3109 3109 3110 3109 3109 3110 3110 3110 3111 3110 3110 3110 3110 3110 3109 3109 3109 3109 3108 3107 3107 3106 3106 3105 3105 3105 3106 3106
3103 3103 3104 3105 3105 3105 3105 3105 3104 3105 3105 3104 3104 3105 3105 3105 3105 3104 3104 3102 3101 3099 3096 3095 3097 3095 3089 3086 3088 3090 3092 3092 3092 3093 3093 3094 3095 3096 3097 3098 3099 3099 3099 3098 3099 3099 3099 3100 3100 3101 3102 3102 3103 3104 3105 3106 3106 3107 3107 3108 3108 3108 3108 3108 3108 3108 3108 3109 3108 3108 3108 3108 3107 3107 3107 3107 3107 3106 3105 3105 3104 3103 3103 3103 3103 3103
3102 3101 3102 3102 3103 3103 3103 3103 3103 3104 3104 3103 3103 3104 3104 3103 3103 3103 3101 3101 3099 3094 3092 3092 3093 3093 3089 3084 3084 3086 3088 3090 3091 3091 3092 3093 3094 3094 3095 3096 3097 3098 3097 3097 3097 3097 3097 3098 3098 3099 3100 3100 3101 3102 3103 3104 3104 3105 3105 3106 3106 3106 3106 3106 3106 3106 3106 3106 3106 3106 3106 3105 3105 3105 3105 3105 3104 3104 3104 3103 3102 3102 3101 3100 3100 3100
3101 3100 3099 3100 3100 3101 3102 3101 3101 3102 3102 3102 3103 3102 3101 3099 3100 3100 3099 3100 3097 3090 3088 3088 3089 3091 3089 3084 3083 3084 3085 3088 3089 3090 3090 3091 3092 3093 3093 3094 3095 3096 3096 3096 3096 3095 3094 3095 3096 3096 3097 3098 3099 3100 3101 3101 3102 3103 3103 3104 3104 3104 3104 3104 3104 3104 3104 3104 3103 3103 3103 3103 3103 3102 3102 3102 3102 3102 3102 3101 3101 3100 3099 3099 3098 3098
3098 3098 3098 3098 3098 3099 3100 3100 3100 3100 3101 3101 3101 3100 3098 3095 3095 3095 3094 3094 3091 3086 3085 3085 3086 3088 3086 3083 3083 3084 3085 3086 3087 3089 3089 3089 3090 3090 3091 3092 3092 3093 3094 3095 3095 3094 3092 3092 3093 3094 3095 3095 3096 3098 3098 3099 3100 3100 3101 3101 3101 3101 3101 3101 3102 3101 3101 3101 3100 3100 3100 3100 3100 3099 3099 3099 3099 3099 3099 3099 3099 3098 3097 3097 3096 3095
3095 3095 3096 3097 3097 3097 3098 3098 3097 3097 3099 3099 3098 3097 3095 3091 3090 3089 3086 3084 3083 3081 3083 3085 3086 3086 3084 3083 3083 3083 3084 3085 3085 3086 3087 3087 3088 3088 3089 3090 3090 3091 3092 3093 3093 3093 3090 3089 3091 3092 3092 3093 3095 3096 3096 3097 3098 3098 3098 3099 3099 3099 3099 3099 3099 3099 3098 3098 3098 3097 3097 3097 3097 3097 3096 3096 3096 3096 3096 3096 3096 3096 3095 3095 3094 3093
3093 3091 3092 3094 3094 3094 3095 3095 3095 3095 3096 3095 3095 3095 3092 3090 3089 3086 3082 3080 3079 3080 3083 3086 3086 3084 3082 3081 3081 3081 3082 3083 3083 3084 3084 3085 3085 3086 3086 3087 3088 3089 3089 3090 3091 3091 3090 3088 3088 3090 3090 3091 3093 3094 3094 3094 3095 3096 3096 3096 3096 3096 3096 3096 3096 3096 3095 3095 3095 3094 3094 3094 3094 3094 3094 3093 3093 3093 3093 3093 3093 3092 3092 3092 3091 3091
3093 3090 3090 3092 3093 3093 3093 3093 3094 3094 3092 3091 3092 3092 3089 3088 3089 3086 3084 3083 3083 3083 3083 3083 3083 3081 3080 3079 3079 3080 3080 3080 3081 3081 3082 3082 3082 3083 3083 3084 3085 3085 3086 3087 3087 3088 3088 3087 3086 3087 3088 3089 3090 3091 3091 3092 3093 3093 3093 3094 3094 3093 3093 3093 3093 3093 3093 3092 3092 3092 3091 3091 3091 3091 3091 3090 3090 3090 3090 3090 3090 3089 3089 3089 3088 3088
3092 3089 3090 3091 3091 3092 3092 3092 3092 3092 3090 3089 3089 3088 3087 3088 3088 3086 3084 3084 3085 3083 3079 3078 3078 3077 3078 3077 3076 3078 3078 3078 3079 3078 3079 3079 3079 3080 3080 3080 3081 3082 3083 3083 3084 3085 3086 3085 3084 3084 3086 3087 3088 3089 3089 3090 3090 3090 3091 3091 3091 3091 3090 3090 3090 3090 3090 3089 3089 3089 3088 3088 3088 3088 3087 3087 3087 3087 3087 3087 3086 3086 3086 3085 3085 3085
3091 3088 3088 3090 3089 3089 3091 3090 3089 3089 3089 3088 3086 3086 3087 3087 3086 3086 3083 3082 3082 3079 3075 3075 3075 3074 3074 3072 3073 3074 3074 3076 3077 3077 3077 3078 3077 3077 3077 3078 3078 3079 3080 3080 3081 3082 3083 3082 3081 3082 3084 3084 3085 3086 3086 3087 3087 3087 3088 3088 3088 3087 3087 3087 3087 3087 3087 3086 3086 3086 3085 3085 3085 3084 3084 3084 3084 3083 3083 3083 3083 3083 3082 3082 3082 3081
3091 3088 3086 3088 3088 3087 3088 3088 3086 3086 3086 3085 3084 3085 3086 3084 3082 3083 3083 3081 3080 3077 3073 3071 3071 3070 3070 3069 3070 3071 3071 3073 3075 3075 3076 3076 3075 3075 3075 3076 3076 3076 3076 3078 3079 3079 3080 3080 3080 3080 3081 3082 3082 3082 3083 3083 3084 3084 3084 3084 3084 3084 3084 3084 3084 3084 3084 3083 3083 3082 3082 3082 3081 3081 3081 3081 3081 3080 3080 3080 3079 3079 3079 3079 3078 3078
3090 3088 3084 3084 3086 3085 3086 3085 3083 3082 3083 3083 3083 3083 3083 3081 3079 3079 3079 3079 3078 3075 3072 3069 3066 3065 3065 3066 3068 3069 3069 3071 3072 3072 3073 3074 3074 3074 3074 3074 3074 3073 3073 3074 3076 3077 3077 3078 3079 3079 3080 3080 3079 3079 3080 3080 3081 3081 3081 3081 3081 3081 3080 3080 3080 3080 3080 3080 3079 3079 3079 3078 3078 3078 3078 3077 3077 3077 3077 3076 3075 3075 3075 3075 3074 3074
3089 3088 3083 3082 3083 3083 3081 3081 3080 3079 3080 3080 3080 3079 3079 3078 3077 3076 3075 3075 3074 3071 3069 3067 3062 3060 3062 3064 3065 3066 3067 3068 3069 3069 3070 3071 3071 3072 3072 3072 3072 3072 3072 3072 3074 3074 3075 3076 3077 3077 3078 3078 3076 3076 3077 3078 3077 3078 3078 3078 3078 3077 3077 3076 3077 3077 3076 3076 3076 3075 3075 3075 3075 3075 3074 3074 3074 3073 3073 3072 3072 3071 3071 3070 3070 3069
3087 3086 3083 3081 3081 3079 3077 3078 3078 3078 3077 3077 3077 3076 3075 3076 3075 3072 3070 3070 3071 3069 3067 3065 3059 3056 3060 3063 3063 3064 3065 3065 3066 3067 3067 3068 3068 3069 3070 3070 3070 3070 3069 3070 3071 3072 3073 3074 3074 3076 3076 3074 3073 3074 3075 3075 3075 3075 3075 3075 3075 3074 3074 3073 3073 3073 3073 3072 3072 3072 3072 3071 3071 3071 3070 3070 3070 3069 3069 3068 3068 3067 3066 3065 3065 3064
3083 3084 3082 3079 3077 3076 3075 3075 3075 3075 3075 3075 3075 3074 3074 3074 3073 3071 3068 3067 3068 3066 3065 3064 3058 3054 3057 3061 3062 3062 3063 3063 3064 3064 3064 3065 3065 3066 3067 3067 3067 3067 3067 3067 3068 3069 3070 3071 3072 3073 3072 3070 3070 3071 3071 3072 3072 3072 3072 3072 3071 3071 3071 3070 3070 3070 3069 3069 3068 3068 3068 3068 3067 3067 3067 3066 3066 3065 3065 3064 3063 3062 3061 3061 3060 3059
3080 3082 3080 3076 3074 3072 3071 3071 3071 3072 3072 3072 3071 3071 3072 3071 3071 3070 3068 3067 3067 3064 3063 3061 3056 3052 3055 3059 3060 3060 3059 3060 3061 3062 3062 3062 3062 3063 3063 3064 3065 3065 3065 3065 3065 3066 3066 3068 3070 3070 3068 3067 3068 3067 3067 3068 3069 3068 3068 3069 3068 3068 3068 3067 3067 3067 3066 3065 3065 3065 3065 3064 3064 3063 3063 3063 3062 3061 3061 3060 3059 3058 3057 3056 3055 3054
3079 3080 3079 3075 3072 3069 3067 3067 3066 3067 3069 3068 3067 3068 3068 3068 3069 3068 3066 3066 3064 3061 3061 3059 3053 3051 3054 3057 3058 3057 3057 3058 3059 3060 3060 3059 3060 3060 3060 3060 3061 3062 3062 3062 3062 3062 3063 3064 3065 3065 3064 3065 3065 3063 3063 3065 3065 3065 3065 3065 3065 3065 3065 3064 3064 3063 3063 3062 3061 3061 3061 3060 3060 3060 3059 3059 3058 3058 3057 3056 3054 3053 3052 3051 3050 3049
3079 3079 3078 3075 3072 3067 3064 3063 3063 3065 3066 3066 3066 3066 3066 3066 3067 3066 3065 3064 3059 3056 3057 3056 3052 3051 3052 3054 3054 3054 3055 3056 3056 3056 3056 3056 3056 3057 3058 3058 3057 3057 3058 3058 3058 3058 3059 3060 3060 3061 3061 3062 3063 3060 3059 3060 3062 3061 3061 3062 3061 3061 3061 3061 3061 3060 3059 3058 3057 3058 3057 3057 3057 3056 3056 3055 3054 3053 3052 3051 3050 3049 3048 3046 3045 3044
3077 3076 3075 3074 3071 3066 3063 3062 3064 3066 3066 3065 3064 3064 3064 3064 3064 3064 3063 3060 3056 3055 3054 3053 3052 3051 3050 3050 3051 3051 3052 3053 3053 3052 3052 3052 3052 3052 3052 3054 3054 3055 3054 3054 3054 3054 3055 3055 3056 3057 3058 3058 3059 3058 3055 3056 3057 3057 3057 3058 3058 3058 3058 3058 3057 3057 3056 3055 3054 3054 3053 3053 3053 3052 3052 3051 3050 3049 3048 3046 3045 3044 3043 3041 3040 3039
3074 3072 3071 3071 3068 3064 3062 3062 3064 3066 3065 3064 3063 3061 3060 3060 3060 3061 3059 3055 3056 3055 3049 3048 3051 3050 3047 3047 3047 3047 3048 3048 3049 3049 3049 3049 3049 3047 3046 3046 3047 3050 3051 3051 3050 3050 3050 3050 3051 3053 3054 3053 3054 3054 3053 3052 3053 3053 3053 3054 3054 3054 3054 3054 3054 3053 3052 3051 3051 3051 3050 3049 3049 3048 3048 3047 3045 3044 3043 3041 3040 3039 3037 3036 3034 3033
3071 3069 3068 3068 3064 3061 3061 3061 3062 3063 3063 3062 3060 3057 3056 3056 3056 3056 3055 3054 3055 3052 3047 3046 3046 3045 3043 3043 3040 3040 3043 3043 3043 3044 3044 3044 3044 3044 3044 3042 3040 3042 3046 3047 3047 3046 3046 3046 3047 3048 3048 3049 3050 3050 3050 3050 3049 3048 3049 3050 3050 3050 3050 3050 3050 3049 3048 3048 3047 3047 3046 3046 3045 3044 3043 3042 3040 3039 3038 3036 3035 3033 3032 3030 3029 3027
3069 3065 3066 3066 3061 3058 3058 3058 3059 3060 3059 3058 3056 3052 3050 3051 3052 3052 3051 3051 3050 3047 3045 3045 3042 3039 3039 3038 3035 3035 3037 3038 3038 3038 3038 3039 3040 3040 3041 3041 3039 3037 3037 3040 3043 3043 3042 3043 3043 3043 3043 3045 3046 3046 3046 3046 3045 3045 3045 3046 3046 3046 3046 3046 3046 3045 3045 3044 3044 3043 3043 3042 3041 3040 3038 3037 3036 3034 3033 3031 3029 3028 3026 3024 3023 3021
3066 3063 3063 3063 3059 3054 3053 3056 3057 3056 3055 3053 3049 3045 3045 3047 3048 3047 3046 3045 3045 3042 3041 3042 3039 3035 3033 3033 3032 3031 3033 3034 3033 3032 3031 3032 3034 3034 3034 3035 3036 3035 3033 3034 3037 3039 3040 3039 3039 3038 3039 3041 3042 3042 3042 3042 3041 3041 3042 3042 3042 3042 3042 3042 3042 3042 3041 3041 3040 3039 3039 3038 3036 3035 3033 3032 3030 3029 3027 3025 3023 3022 3020 3018 3016 3015
3064 3061 3060 3062 3057 3049 3049 3054 3053 3051 3052 3048 3039 3037 3041 3043 3042 3040 3040 3040 3039 3038 3037 3037 3034 3030 3028 3030 3029 3028 3029 3029 3028 3028 3027 3026 3028 3029 3028 3028 3029 3030 3031 3031 3032 3035 3036 3035 3034 3035 3035 3036 3037 3038 3037 3038 3038 3038 3038 3038 3039 3038 3038 3038 3038 3038 3037 3037 3036 3035 3034 3033 3032 3030 3029 3027 3025 3024 3022 3019 3017 3016 3014 3012 3010 3009
3061 3059 3058 3059 3054 3046 3046 3051 3050 3050 3048 3037 3029 3032 3037 3037 3036 3035 3035 3035 3034 3034 3033 3031 3028 3026 3026 3026 3026 3025 3025 3024 3024 3024 3023 3022 3022 3022 3023 3024 3024 3025 3026 3026 3027 3031 3031 3030 3030 3032 3032 3032 3033 3034 3034 3034 3035 3034 3034 3035 3035 3034 3034 3034 3034 3034 3033 3033 3032 3031 3030 3029 3028 3026 3024 3022 3020 3018 3016 3014 3012 3010 3007 3005 3004 3003
3057 3056 3055 3055 3051 3044 3043 3047 3048 3047 3038 3025 3024 3032 3034 3032 3032 3031 3030 3030 3030 3029 3028 3026 3024 3024 3023 3023 3023 3022 3021 3019 3019 3019 3018 3017 3016 3015 3015 3018 3019 3019 3020 3020 3022 3026 3026 3025 3026 3027 3028 3029 3029 3029 3030 3030 3031 3031 3031 3031 3031 3031 3031 3031 3030 3030 3029 3029 3028 3027 3026 3025 3024 3022 3020 3018 3016 3013 3011 3008 3006 3004 3002 3000 2999 2997
3053 3053 3051 3051 3048 3043 3041 3044 3043 3036 3026 3021 3026 3030 3029 3028 3028 3027 3025 3026 3026 3025 3024 3023 3021 3021 3020 3019 3019 3017 3015 3014 3012 3011 3011 3011 3011 3010 3009 3010 3012 3013 3013 3014 3018 3021 3021 3021 3021 3022 3024 3025 3025 3025 3026 3026 3027 3028 3028 3028 3028 3028 3028 3027 3026 3026 3026 3025 3025 3024 3022 3021 3019 3018 3016 3013 3011 3008 3006 3003 3001 2999 2996 2995 2993 2992
3049 3049 3048 3047 3044 3041 3038 3037 3032 3025 3022 3024 3025 3025 3025 3025 3024 3022 3021 3021 3021 3021 3021 3019 3018 3017 3016 3014 3012 3010 3008 3006 3004 3003 3004 3005 3006 3006 3003 3003 3004 3005 3007 3010 3014 3016 3015 3016 3017 3018 3020 3021 3021 3022 3023 3023 3024 3024 3024 3024 3024 3024 3024 3024 3023 3022 3021 3021 3021 3020 3018 3017 3015 3013 3012 3009 3006 3004 3001 2998 2996 2994 2992 2990 2988 2986
3045 3045 3044 3042 3039 3037 3034 3029 3026 3023 3021 3021 3020 3020 3022 3021 3019 3019 3017 3015 3017 3018 3017 3015 3014 3013 3010 3008 3007 3006 3004 3001 2998 2997 2999 3001 3002 3001 2999 2999 2999 3000 3003 3008 3010 3010 3011 3013 3014 3014 3016 3017 3018 3019 3019 3020 3021 3021 3020 3021 3021 3020 3020 3020 3020 3019 3018 3017 3017 3016 3015 3013 3012 3010 3008 3005 3002 2999 2996 2994 2991 2989 2987 2985 2983 2981
3040 3039 3039 3037 3034 3033 3031 3026 3023 3021 3017 3016 3018 3018 3017 3017 3016 3015 3014 3012 3013 3013 3012 3010 3009 3007 3005 3004 3003 3002 3001 2998 2994 2993 2995 2996 2997 2996 2995 2995 2995 2996 3000 3003 3003 3004 3007 3009 3011 3011 3013 3014 3015 3016 3016 3016 3017 3017 3017 3017 3017 3017 3017 3016 3016 3016 3015 3014 3014 3013 3011 3010 3008 3006 3004 3001 2998 2995 2992 2990 2987 2984 2982 2980 2978 2976
3034 3034 3035 3033 3030 3029 3027 3023 3020 3017 3014 3015 3016 3015 3013 3014 3013 3012 3012 3010 3008 3007 3007 3006 3005 3004 3002 3001 3000 3000 2999 2995 2991 2991 2992 2991 2990 2988 2989 2992 2992 2992 2994 2996 2998 3001 3004 3006 3008 3009 3010 3011 3012 3013 3013 3013 3014 3014 3013 3014 3014 3014 3014 3013 3013 3012 3012 3011 3010 3009 3008 3007 3004 3002 3000 2997 2994 2991 2988 2985 2982 2980 2978 2976 2973 2971
3030 3029 3030 3028 3025 3024 3023 3019 3015 3012 3011 3013 3014 3012 3011 3011 3010 3010 3009 3006 3004 3005 3005 3004 3003 3002 3000 2999 2998 2997 2996 2993 2988 2987 2988 2987 2985 2983 2984 2988 2991 2990 2990 2993 2996 2999 3001 3003 3005 3007 3007 3008 3009 3009 3010 3010 3010 3010 3010 3010 3011 3011 3011 3010 3009 3009 3009 3008 3007 3006 3005 3003 3001 2998 2995 2993 2990 2987 2984 2981 2978 2975 2973 2971 2968 2965
3025 3025 3024 3023 3021 3020 3018 3015 3011 3009 3009 3010 3011 3010 3009 3008 3009 3008 3005 3003 3001 3002 3002 3002 3000 2998 2997 2996 2995 2993 2992 2990 2986 2984 2983 2984 2983 2982 2982 2985 2987 2988 2989 2991 2993 2995 2997 3000 3002 3003 3003 3005 3006 3006 3007 3006 3006 3007 3007 3007 3007 3007 3007 3006 3006 3006 3006 3005 3004 3003 3001 2999 2997 2994 2991 2988 2985 2982 2979 2976 2973 2971 2968 2965 2963 2960
3022 3021 3020 3018 3017 3016 3014 3012 3008 3007 3007 3007 3007 3007 3007 3007 3006 3003 3001 3001 3000 2999 2999 2999 2997 2995 2994 2992 2991 2989 2988 2986 2984 2982 2980 2979 2979 2980 2980 2982 2983 2985 2986 2986 2989 2993 2995 2996 2998 3000 3001 3002 3003 3003 3004 3003 3003 3004 3004 3004 3004 3004 3003 3003 3004 3004 3004 3003 3002 3000 2998 2996 2993 2990 2987 2984 2981 2978 2975 2972 2969 2966 2963 2960 2958 2955
3020 3019 3015 3013 3013 3012 3010 3008 3007 3005 3005 3004 3004 3005 3006 3004 3002 3000 2999 2999 2998 2997 2997 2995 2993 2992 2990 2988 2988 2986 2984 2982 2981 2979 2977 2976 2975 2975 2976 2978 2979 2980 2981 2984 2988 2991 2992 2993 2995 2997 2998 2999 3000 3000 3000 3000 3001 3001 3001 3001 3001 3000 3000 3001 3002 3002 3001 3000 2999 2997 2995 2992 2989 2986 2983 2980 2978 2975 2972 2968 2965 2962 2959 2956 2953 2949
3016 3015 3011 3009 3010 3008 3005 3004 3004 3003 3003 3003 3003 3003 3003 3001 2999 2998 2996 2995 2995 2994 2993 2991 2989 2988 2987 2985 2984 2983 2981 2980 2978 2977 2975 2972 2971 2972 2974 2976 2977 2978 2981 2984 2986 2988 2990 2991 2992 2994 2995 2996 2996 2996 2997 2998 2998 2998 2998 2998 2997 2997 2998 2999 3000 2999 2998 2997 2996 2994 2992 2989 2986 2983 2980 2977 2975 2971 2968 2965 2961 2958 2955 2952 2948 2944
3011 3010 3009 3006 3006 3005 3002 3000 3001 3001 3001 3002 3001 3001 2999 2998 2997 2995 2993 2991 2991 2991 2990 2988 2987 2985 2983 2983 2981 2980 2978 2977 2976 2975 2974 2971 2970 2972 2974 2975 2977 2978 2980 2983 2984 2986 2988 2989 2989 2990 2991 2992 2993 2993 2994 2995 2996 2995 2995 2995 2994 2994 2996 2997 2997 2997 2996 2995 2993 2991 2989 2986 2983 2980 2978 2975 2972 2968 2965 2961 2958 2955 2952 2948 2944 2939
3008 3007 3005 3003 3002 3001 2998 2997 2999 3000 2999 2999 2998 2997 2995 2994 2994 2992 2990 2988 2988 2987 2986 2985 2983 2981 2980 2980 2979 2977 2976 2975 2974 2973 2973 2972 2971 2973 2975 2976 2977 2978 2980 2981 2983 2984 2986 2986 2987 2988 2988 2989 2991 2991 2991 2993 2993 2992 2992 2992 2991 2992 2995 2995 2995 2995 2994 2993 2991 2989 2986 2984 2981 2978 2975 2972 2969 2965 2961 2958 2954 2951 2948 2944 2939 2934
3005 3003 3001 2999 2999 2998 2995 2994 2996 2997 2996 2996 2995 2994 2992 2992 2991 2989 2986 2985 2985 2983 2983 2982 2980 2978 2977 2977 2976 2974 2973 2972 2972 2972 2972 2971 2971 2973 2976 2977 2977 2978 2979 2980 2981 2982 2983 2984 2985 2985 2985 2987 2988 2988 2989 2990 2991 2991 2990 2990 2990 2992 2993 2993 2993 2993 2992 2991 2989 2986 2984 2981 2979 2976 2973 2970 2966 2962 2959 2955 2951 2947 2944 2940 2935 2931
3001 2999 2997 2997 2996 2995 2992 2991 2992 2993 2992 2992 2992 2991 2990 2988 2986 2985 2983 2982 2982 2980 2979 2979 2977 2975 2974 2974 2973 2972 2970 2970 2970 2970 2971 2970 2970 2973 2976 2977 2976 2977 2978 2978 2979 2981 2981 2982 2982 2983 2983 2984 2985 2986 2986 2988 2989 2990 2988 2988 2989 2991 2991 2992 2992 2992 2991 2989 2987 2984 2982 2979 2977 2974 2971 2967 2964 2960 2956 2953 2949 2944 2940 2936 2932 2927
2998 2995 2994 2994 2992 2991 2990 2990 2990 2990 2989 2989 2989 2988 2985 2983 2982 2982 2981 2980 2979 2977 2976 2976 2974 2972 2971 2971 2969 2968 2968 2968 2968 2968 2969 2970 2971 2972 2975 2975 2975 2975 2976 2977 2978 2979 2979 2980 2981 2981 2981 2981 2982 2983 2983 2985 2988 2989 2987 2987 2989 2990 2990 2991 2991 2991 2989 2987 2984 2982 2980 2977 2975 2972 2969 2966 2962 2958 2954 2950 2947 2943 2938 2934 2929 2924
2995 2992 2991 2991 2989 2987 2987 2988 2988 2987 2985 2985 2986 2985 2981 2979 2979 2980 2980 2978 2976 2975 2974 2973 2972 2970 2968 2967 2965 2964 2965 2965 2966 2966 2967 2969 2970 2971 2973 2974 2975 2975 2975 2975 2976 2976 2977 2978 2979 2979 2979 2979 2980 2981 2982 2984 2987 2988 2986 2986 2988 2989 2989 2990 2990 2989 2988 2985 2982 2980 2978 2976 2974 2971 2967 2964 2960 2956 2952 2948 2945 2941 2937 2932 2927 2922
2991 2989 2989 2989 2986 2984 2984 2984 2984 2984 2982 2982 2982 2981 2979 2978 2977 2978 2977 2976 2974 2972 2971 2970 2969 2968 2966 2963 2961 2961 2962 2963 2964 2965 2967 2967 2968 2969 2970 2971 2973 2973 2973 2973 2974 2975 2975 2976 2977 2978 2979 2979 2979 2980 2981 2983 2985 2985 2985 2986 2988 2988 2989 2989 2989 2988 2987 2984 2982 2979 2977 2975 2972 2969 2966 2963 2959 2955 2951 2947 2943 2939 2935 2931 2926 2921